Powrót do katalogu

STARLINK-32753

AktywnyŁącznośćVLEO
NORAD 62481·PAYLOAD·🇺🇸 United States

Wystrzelony Dec 31, 2024 z Cape Canaveral Space Force Station

Loading…

Następne Przeloty (najbliższe 24 godziny)

TLE

ŚwieżeSource: CelesTrak SupGP

Epoka: Sep 14, 2026, 21:30 UTC

1 62481C 24254V   26257.89631944  .00040951  00000+0  14833-2 0  2570
2 62481  43.0037  27.5500 0001747 275.5303  57.0830 15.27555621    16

Śledź STARLINK-32753 w czasie rzeczywistym z AllMySat

Download on the App Store